Weather Roundup
Issued by NWS Chicago, IL

Home | Current Version | Previous Version | Text Only | Print | Product List | Glossary On
Versions: 1 2 3 4 5 6 7 8 9 10 11 12 13 14 15 16 17 18 19 20 21 22 23 24 25 26 27 28 29 30 31 32 33 34 35 36 37 38 39 40 41 42 43 44 45 46 47 48 49 50
000
NZUS59 KLOT 282110
HRRLOT

CHICAGO AREA WEATHER ROUNDUP
NATIONAL WEATHER SERVICE CHICAGO/ROMEOVILLE IL
300 PM CST WED JAN 28 2015

NOTE: "FAIR" INDICATES FEW OR NO CLOUDS BELOW 12,000 FEET WITH NO
SIGNIFICANT WEATHER AND/OR OBSTRUCTIONS TO VISIBILITY.

* THESE STATIONS ARE NOT UNDER NWS QUALITY CONTROL. THEY ALSO MAY NOT
  REPORT WEATHER SUCH AS PRECIPITATION OR FOG.

ILZ005-006-012>014-019>023-282200-
NORTHEAST ILLINOIS

CITY           SKY/WX    TMP DP  RH WIND       PRES   REMARKS
OHARE          CLOUDY    33  21  61 S16       30.09F WCI  23
MIDWAY         CLOUDY    35  20  54 SE15      30.11F WCI  25
AURORA         CLOUDY    34  23  64 SE17      30.07F WCI  23
LANSING*       PTSUNNY   33  23  65 S14       30.13F WCI  24
JOLIET*        PTSUNNY   33  23  68 SE15G21   30.10F WCI  22
WAUKEGAN       PTSUNNY   31  22  69 SE16      30.08F WCI  20
DUPAGE AIRPORT CLOUDY    33  21  61 SE13      30.07F WCI  24
WHEELING       PTSUNNY   34  19  54 S13       30.10F WCI  25
KANKAKEE*      MOSUNNY   35  25  67 SE16G22   30.13F WCI  25
MORRIS*        PTSUNNY   34  28  78 SE14      30.07F WCI  25
LEWIS AIRPORT* CLOUDY    32  22  67 S16G25    30.09F WCI  22
NORTHERLY IS     N/A     34  21  59 S9          N/A  WCI  27
$$

WIZ051-052-058>065-066-070>072-282200-
SOUTHEAST WISCONSIN

CITY           SKY/WX    TMP DP  RH WIND       PRES   REMARKS
MILWAUKEE      CLOUDY    33  19  56 S16       30.08F WCI  23
KENOSHA*       PTSUNNY   33  21  61 SE13      30.08F WCI  24
RACINE*        PTSUNNY   32  20  61 S17G24    30.11F WCI  21
BURLINGTON     PTSUNNY   33  18  53 SE13      30.05F WCI  24
WAUKESHA       PTSUNNY   32  18  55 SE12G17   30.06F WCI  23
WEST BEND      PTSUNNY   34  19  55 SE9       30.04F WCI  26
$$

INZ001>003-010>013-019-020-282200-
NORTHWEST INDIANA

CITY           SKY/WX    TMP DP  RH WIND       PRES   REMARKS
GARY*          PTSUNNY   36  18  48 SE14G25   30.14F
MICHIGAN CITY* NOT AVBL
RENSSELAER*    NOT AVBL
VALPARAISO     PTSUNNY   32  19  58 SE10      30.15F WCI  24
$$

LMZ740>746-282200-
SOUTHERN LAKE MICHIGAN

STATION/POSITION TIME  SKY/WX   TEMP WIND        PRES    VSBY
                                AIR  DIR/SP/G
                 (UTC)          (F)  (DEG/KT/KT) (MB)    (MI)
HARRISON CRIB    2100            32  160/ 17/ 21   N/A
BURNHAM HARBOR   2100            34  150/ 13/ 17   N/A
CALUMET HARBOR   2100            33  140/ 10/ 15   N/A
BURNS HARBOR     NOT AVBL
MICHIGAN CITY    2100            31  130/ 16/ 21   N/A
$$

ABBREVIATIONS USED IN REMARKS
   TC - TEMPERATURE IN CELSIUS
  WCI - WIND CHILL INDEX
   HX - HEAT INDEX
  VSB - VISIBILITY
$$


USA.gov is the U.S. government's official web portal to all federal, state and local government web resources and services.